Location: Unspecified
(58.7730°N, 5.8460°E)
Time: 02:12:51
(UTC+01:00)

Resurs 1-4 Rocket - Visible Passes

Search period start: 18 November 2017 00:00
Search period end: 28 November 2017 00:00
Orbit: 800 x 814 km, 98.5° (Epoch: 16 November)

Date Brightness Start Highest point End Pass type
(mag) Time Alt. Az. Time Alt. Az. Time Alt. Az.
18 Nov 4.4 03:25:55 10° NNE 03:27:12 18° NNE 03:27:12 18° NNE visible
18 Nov 3.9 05:06:21 10° N 05:08:17 18° NNW 05:08:17 18° NNW visible
19 Nov 4.6 03:01:19 10° NNE 03:02:15 15° NNE 03:02:15 15° NNE visible
19 Nov 4.0 04:41:33 10° N 04:43:20 19° N 04:43:20 19° N visible
19 Nov 4.1 06:22:57 10° NNW 06:24:24 11° NNW 06:24:24 11° NNW visible
20 Nov 4.9 02:36:48 10° NNE 02:37:17 13° NNE 02:37:17 13° NNE visible
20 Nov 4.1 04:16:49 10° N 04:18:22 19° N 04:18:22 19° N visible
20 Nov 4.0 05:57:44 10° N 05:59:26 14° NNW 05:59:26 14° NNW visible
21 Nov 4.3 03:52:07 10° NNE 03:53:24 18° N 03:53:24 18° N visible
21 Nov 4.0 05:32:46 10° N 05:34:28 16° NNW 05:34:28 16° NNW visible
22 Nov 4.5 03:27:28 10° NNE 03:28:26 16° NNE 03:28:26 16° NNE visible
22 Nov 4.0 05:07:55 10° N 05:09:31 17° N 05:09:31 17° N visible
23 Nov 4.8 03:02:53 10° NNE 03:03:30 13° NNE 03:03:30 13° NNE visible
23 Nov 4.1 04:43:07 10° N 04:44:34 17° N 04:44:34 17° N visible
23 Nov 4.1 06:24:35 10° NNW 06:25:38 11° NNW 06:25:38 11° NNW visible
24 Nov 5.0 02:38:21 10° NNE 02:38:32 11° NNE 02:38:32 11° NNE visible
24 Nov 4.2 04:18:23 10° N 04:19:37 17° N 04:19:37 17° N visible
24 Nov 4.1 05:59:19 10° N 06:00:41 13° NNW 06:00:41 13° NNW visible
25 Nov 4.4 03:53:41 10° NNE 03:54:39 16° N 03:54:39 16° N visible
25 Nov 4.1 05:34:21 10° N 05:35:43 14° NNW 05:35:43 14° NNW visible
26 Nov 4.7 03:29:02 10° NNE 03:29:42 14° NNE 03:29:42 14° NNE visible
26 Nov 4.1 05:09:29 10° N 05:10:47 15° N 05:10:47 15° N visible
27 Nov 4.9 03:04:25 10° NNE 03:04:45 12° NNE 03:04:45 12° NNE visible
27 Nov 4.2 04:44:41 10° N 04:45:50 16° N 04:45:50 16° N visible
27 Nov 4.2 06:26:14 10° NNW 06:26:54 11° NNW 06:26:54 11° NNW visible
